Location: Airlie Beach - Cannonvale QLD, Australia
(20.2768°S, 148.7558°E)
Time: 16:11:12
(UTC+10:00)

Tiangong - Pass Details

Date: 23 May 2026
Orbit: 381 x 392 km, 41.5° (Epoch: 8 June)

Event Time Altitude Azimuth Distance (km) Brightness Sun altitude
Exits shadow 05:02:39 30° 352° (N) 709 -0.8 -20.2°
Maximum altitude 05:03:42 43° 41° (NE) 549 -1.0 -20.0°
Drops below altitude 10° 05:06:44 10° 114° (ESE) 1,403 1.4 -19.3°
Sets 05:08:52 0° 121° (ESE) 2,259 2.4 -18.8°
